Weather History for Dayton Wright, OH

Change the Weather History Date:

Sunday, February 10, 2013

  Actual Average (KFFO) Record (KFFO)
Temperature  
Mean Temperature 40 °F -  
Max Temperature 52 °F 39 °F 55 °F (1999)
Min Temperature 28 °F 22 °F 0 °F (2011)
Degree Days  
Heating Degree Days 25    
Moisture  
Dew Point 29 °F    
Average Humidity 60    
Maximum Humidity 86    
Minimum Humidity 38    
Precipitation  
Precipitation 0.01 in - - ()
Sea Level Pressure  
Sea Level Pressure 30.01 in    
Wind  
Wind Speed 10 mph (SSE)    
Max Wind Speed 18 mph    
Max Gust Speed 30 mph    
Visibility 10 miles    
Events      
Averages and records for this station are not official NWS values.
T = Trace of Precipitation, MM = Missing Value Source: NWS Daily Summary

Daily Weather History Graph

Daily Weather History Graph

Search for Another Location

Airport:

Trip Planner

Search our weather history database for the weather conditions in past years. The results will help you decide how hot, cold, wet, or windy it might be!

Date:

Astronomy

Feb. 10, 2013 Rise Set
Actual Time 7:34 AM EST 6:07 PM EST
Civil Twilight 7:07 AM EST 6:35 PM EST
Nautical Twilight 6:35 AM EST 7:07 PM EST
Astronomical Twilight 6:04 AM EST 7:38 PM EST
Moon 7:24 AM EST (2/10) 6:57 PM EST (2/10)
Length of Visible Light 11h 28m
Length of Day
10h 33m
New Moon, 0% of the Moon is Illuminated
Feb 10
New Moon
Feb 17
First Quarter
Feb 25
Full
Mar 4
Last Quarter
Mar 11
New

Hourly Weather History & Observations

Time (EST) Temp. Windchill Dew Point Humidity Pressure Visibility Wind Dir Wind Speed Gust Speed Precip Events Conditions
12:53 AM 28.9 °F 21.9 °F 19.9 °F 69% 30.23 in 10.0 mi East 6.9 mph - N/A   Clear
1:53 AM 30.0 °F 21.7 °F 19.9 °F 66% 30.22 in 10.0 mi ESE 9.2 mph - N/A   Clear
2:53 AM 30.9 °F 24.3 °F 19.0 °F 61% 30.21 in 10.0 mi SE 6.9 mph - N/A   Clear
3:53 AM 32.0 °F 24.8 °F 19.0 °F 59% 30.19 in 10.0 mi ESE 8.1 mph - N/A   Clear
4:53 AM 33.1 °F 26.1 °F 19.9 °F 59% 30.18 in 10.0 mi SE 8.1 mph - N/A   Partly Cloudy
5:53 AM 34.0 °F 28.8 °F 19.9 °F 56% 30.17 in 10.0 mi SSE 5.8 mph - N/A   Mostly Cloudy
6:53 AM 35.1 °F 29.3 °F 19.9 °F 54% 30.17 in 10.0 mi SSE 6.9 mph - N/A   Scattered Clouds
8:53 AM 37.9 °F 30.9 °F 21.0 °F 51% 30.14 in 10.0 mi SSE 10.4 mph - N/A   Mostly Cloudy
9:53 AM 41.0 °F 33.5 °F 24.1 °F 51% 30.13 in 10.0 mi South 13.8 mph - N/A   Overcast
10:53 AM 42.1 °F 36.6 °F 24.1 °F 49% 30.12 in 10.0 mi South 9.2 mph - N/A   Overcast
11:53 AM 46.0 °F 39.6 °F 25.0 °F 44% 30.07 in 10.0 mi SSE 15.0 mph - N/A   Overcast
12:53 PM 48.0 °F - 26.1 °F 42% 30.02 in 10.0 mi SSE 12.7 mph - N/A   Overcast
1:53 PM 51.1 °F - 28.0 °F 41% 29.96 in 10.0 mi SSE 10.4 mph - N/A   Scattered Clouds
2:53 PM 52.0 °F - 27.0 °F 38% 29.96 in 10.0 mi South 15.0 mph 19.6 mph N/A   Scattered Clouds
3:53 PM 51.1 °F - 28.0 °F 41% 29.94 in 10.0 mi SSE 9.2 mph - N/A   Partly Cloudy
4:53 PM 51.1 °F - 28.0 °F 41% 29.91 in 10.0 mi SSE 13.8 mph - N/A   Overcast
5:53 PM 48.9 °F - 35.1 °F 59% 29.83 in 10.0 mi SSE 18.4 mph 29.9 mph 0.00 in   Overcast
6:53 PM 48.0 °F - 39.9 °F 74% 29.88 in 10.0 mi South 16.1 mph - 0.01 in   Overcast
7:15 PM 48.2 °F - 39.2 °F 71% 29.85 in 10.0 mi SSE 13.8 mph 23.0 mph N/A   Overcast
7:53 PM 48.0 °F - 39.9 °F 74% 29.85 in 10.0 mi South 18.4 mph 28.8 mph N/A   Overcast
8:53 PM 48.0 °F - 41.0 °F 77% 29.83 in 10.0 mi South 16.1 mph 29.9 mph N/A   Overcast
9:53 PM 48.0 °F - 42.1 °F 80% 29.83 in 10.0 mi South 17.3 mph 24.2 mph N/A   Overcast
10:53 PM 46.9 °F - 43.0 °F 86% 29.81 in 10.0 mi South 15.0 mph 23.0 mph N/A   Overcast
11:53 PM 46.9 °F - 43.0 °F 86% 29.80 in 8.0 mi SSW 13.8 mph - N/A   Overcast